Regional Weather Roundup
Issued by NWS

Home | Current Version | Previous Version | Graphics & Text | Print | Product List | Glossary On
Versions: 1 2 3 4 5 6 7 8 9 10 11 12 13 14 15 16 17 18 19 20 21 22 23 24 25 26 27 28 29 30 31 32 33 34 35 36 37 38 39 40 41 42 43 44 45 46 47 48 49
000
ASUS45 KSLC 291310
RWRUT

UTAH REGIONAL WEATHER ROUNDUP
NATIONAL WEATHER SERVICE SALT LAKE CITY UT
700 AM MDT MON JUN 29 2015

UTZ001>011-023>025-291400-

NORTHERN UTAH

CITY           SKY/WX    TMP DP  RH WIND       PRES   REMARKS
BRIGHAM CITY   CLEAR     74  43  32 W9        30.06R
HILL AFB       CLEAR     74  45  35 E21G30    30.10R
LOGAN          CLEAR     63  52  67 NE6       30.11R
OGDEN          CLEAR     75  46  35 S14       30.06R
PROVO AIRPORT  PTCLDY    72  46  40 CALM      30.11R
SALT LAKE CITY MOCLDY    78  54  43 S10       30.04R
VERNAL         SUNNY     70  46  42 NW6       30.20R
WENDOVER       CLEAR     75  43  31 NE6       30.04S
HEBER CITY     CLEAR     57  46  67 CALM      30.24R
WEST JORDAN    CLEAR     75  48  38 CALM      30.09R

$$

UTZ012>022-026-027-291400-

SOUTHERN/CENTRAL UTAH

CITY           SKY/WX    TMP DP  RH WIND       PRES   REMARKS
BLANDING       PTCLDY    65  44  48 N6        30.33R
BRYCE CANYON   CLEAR     51  43  74 W9        30.39R
CEDAR CITY     CLEAR     66  44  45 NW3       30.21R
DELTA          CLEAR     75  39  27 S12       30.11R
HANKSVILLE     PTCLDY    79  41  25 SE7       30.11R
MILFORD        CLEAR     74  44  34 SW16      30.13R
MOAB/CYNLANDS  SUNNY     78  43  28 E3        30.10R
PRICE          CLEAR     78  37  22 VRB5      30.22R
ST GEORGE      SUNNY     81  48  32 E9        30.03R
KANAB          CLEAR     63  48  59 CALM      30.24R

$$

REGIONAL REPORTS     COLORADO/ARIZONA

CITY           SKY/WX    TMP DP  RH WIND       PRES   REMARKS
CRAIG, CO      SUNNY     58  47  66 CALM      30.30R
GRAND JUNCTION MOSUNNY   75  44  33 E14       30.16R
RIFLE          SUNNY     63  45  51 E5        30.24R
MONTROSE       MOSUNNY   67  46  47 SE3       30.27R
CORTEZ         SUNNY     59  46  62 SE3       30.28R
PAGE, AZ       CLEAR     80  48  32 CALM      30.11R
GRAND CANYON   CLEAR     54  46  74 NE3       30.32R
KINGMAN        PTCLDY    73  56  54 S7        30.05R
FLAGSTAFF      PTCLDY    56  52  86 CALM      30.33S

$$

REGIONAL REPORTS    NEVADA/IDAHO/WYOMING

CITY           SKY/WX    TMP DP  RH WIND       PRES   REMARKS
LAS VEGAS, NV  LGT RAIN  91  48  22 S9        29.90R
ELY            PTCLDY    61  36  39 S8        30.27R
ELKO           PTCLDY    70  45  40 CALM      30.15R
POCATELLO, ID  CLEAR     64  54  69 E3        30.10R
BURLEY         CLEAR     65  56  72 CALM      30.05R
EVANSTON, WY   SUNNY     64  42  44 E7        30.35R
ROCK SPRINGS   SUNNY     62  45  53 CALM      30.35R
KEMMERER       SUNNY     63  41  45 N10       30.38R

$$


USA.gov is the U.S. government's official web portal to all federal, state and local government web resources and services.